Regional Weather Roundup
Issued by NWS Charleston, SC

Current Version | Previous Version | Graphics & Text | Print | Product List | Glossary On
Versions: 1 2 3 4 5 6 7 8 9 10 11 12 13 14 15 16 17 18 19 20 21 22 23 24 25 26 27 28 29 30 31 32 33 34 35 36 37 38 39 40 41 42 43 44 45 46 47 48 49 50
000 ASUS42 KCHS 250428 RWRCHS REGIONAL WEATHER ROUNDUP NATIONAL WEATHER SERVICE CHARLESTON SC 1200 AM EDT TUE JUL 25 2017 NOTE: "FAIR" INDICATES FEW OR NO CLOUDS BELOW 12,000 FEET WITH NO SIGNIFICANT WEATHER AND/OR OBSTRUCTIONS TO VISIBILITY. NOT ALL STATIONS ARE QUALITY CONTROLLED. USE DATA WITH CAUTION... ESPECIALLY DEWPOINT OBSERVATIONS. SCZ027-030-031-034>040-042>050-250500- ...SOUTHEAST SOUTH CAROLINA... CITY SKY/WX TMP DP RH WIND PRES REMARKS N CHARLESTON CLOUDY 75 72 90 SE5 30.00F WATERFRONT PRK N/A 76 73 90 CALM 29.98F JOHNS ISLAND FAIR 75 75 100 CALM 30.01R PINOPOLIS N/A 75 72 88 VRB2 29.93S MONCKS CORNER FAIR 72 70 94 CALM 30.00S SUMMERVILLE FAIR 72 72 100 CALM 30.01S BEAUFORT MCAS PTCLDY 78 77 96 SW3 30.01S BEAUFORT ARPT FAIR 79 73 83 SW7 30.01S HILTON HEAD IS CLOUDY 77 77 100 SW6 30.03S WALTERBORO CLOUDY 72 72 100 CALM 30.02R ALLENDALE NOT AVBL ...SOUTHERN MIDLANDS AND PEE DEE... CITY SKY/WX TMP DP RH WIND PRES REMARKS GEORGETOWN FAIR 72 72 100 CALM 30.01S KINGSTREE MOCLDY 72 72 100 CALM 30.00R ORANGEBURG CLOUDY 73 72 96 CALM 30.00F BARNWELL FAIR 75 75 100 CALM 30.00F AIKEN FAIR 72 72 100 S5 30.05R MANNING FAIR 73 72 94 NW10G22 30.00S COLUMBIA PTCLDY 77 74 90 W3 29.99F SUMTER PTCLDY 74 71 89 SW8 29.97F FLORENCE PTCLDY 74 73 97 W7 29.99S MYRTLE BEACH CLOUDY 76 73 91 W8 30.01 N MYRTLE BEACH CLOUDY 76 74 93 SW7 30.00R $$ GAZ063-065-086>088-099>101-113>116-118-119-134>141-150-250500- ...SOUTHEAST GEORGIA... CITY SKY/WX TMP DP RH WIND PRES REMARKS SAVANNAH ARPT CLOUDY 77 74 90 S7 30.02R HUNTER AAF CLOUDY 77 75 94 CALM 30.00R FORT STEWART MOCLDY 76 74 92 S3 30.00S STATESBORO CLOUDY 79 78 98 S3 30.00S SYLVANIA PTCLDY 76 76 100 CALM 30.02R CLAXTON FAIR 79 76 90 S3 30.00F ...CSRA...CENTRAL AND FAR SOUTHEAST GEORGIA... CITY SKY/WX TMP DP RH WIND PRES REMARKS THOMSON PTCLDY 73 71 94 W5 30.07S AUGUSTA-BUSH PTCLDY 75 73 93 CALM 30.00F AUGUSTA-DANIEL PTCLDY 76 71 85 S5 30.02S SWAINSBORO FAIR 73 73 100 CALM 30.02R VIDALIA PTCLDY 79 77 94 SW3 30.01F EASTMAN FAIR 77 77 100 CALM 30.04R HAZLEHURST FAIR 79 77 95 SW5 30.01R ALMA CLOUDY 77 74 90 CALM 30.02F WAYCROSS CLOUDY 80 79 98 SW5 30.03S JESUP NOT AVBL BAXLEY FAIR 77 77 100 CALM 30.01F BRUNSWICK MOCLDY 81 77 89 SW7 30.03F SAINT SIMONS CLOUDY 82 77 84 SW8 30.03S HX 90 $$ SCZ027-028-034-036>038-045-046-048>050-GAZ119-141-250500- ...LAKE AND SUPPLEMENTAL COASTAL OBSERVATIONS... STATION/POSITION TIME TEMP WIND PRES WAVE SWELL AIR SEA DIR/SP/G HT/PER HT/PER/DIR (UTC) (F) (DEG/KT/KT) (MB) (FT/S) (FT/S/D) WINYAH BAY 0330 75 240/ 2 1016.0R LAKE MURRAY 0420 79 260/ 5/ 7 1014.9F ACE BASIN NERRS 0345 79 240/ 1 1016.0S FORT PULASKI 0400 80 85 240/ 3/ 5 1017.0 SAPELO ISLAND 0400 81 210/ 7 1017.0 $$ ANZ835-935-AMZ111-154-330-350-352-354-370-450-454-472-250500- ...C-MAN AND BUOY OBSERVATIONS... STATION/POSITION TIME TEMP WIND PRES WAVE SWELL AIR SEA DIR/SP/G HT/PER HT/PER/DIR (UTC) (F) (DEG/KT/KT) (MB) (FT/S) (FT/S/D) BUOY 41004 0410 82 82 210/ 16/ 21 1015.4 BUOY 41008 0350 81 81 210/ 12/ 14 1016.1S 3/ 5 2/130/ 9 FOLLY BEACH CMAN 0400 82 200/ 8/ 11 1016.6R CAPERS NEARSHORE 0408 79 84 220/ 10/ 16 1015.5R FRIPP NEARSHORE 0408 82 84 240/ 14/ 19 1015.9R STATION/POSITION TIME TEMP WIND PRES WAVE SWELL AIR SEA DIR/SP/G HT/PER HT/PER/DIR (UTC) (F) (DEG/KT/KT) (MB) (FT/S) (FT/S/D) 5E ST. MARYS GA 0400 77 N/A 2/11 FRYING PAN BUOY 0410 83 82 230/ 16/ 19 1015.9 BUOY 41025 0350 82 84 240/ 21/ 27 1014.3R 7/ 6 2/140/10 CAPE LOOKOUT NC 0400 80 220/ 11/ 14 1014.7F BUOY 41002 0350 83 83 210/ 14/ 17 1019.2R 5/ 7 2/100/11 BUOY 41010 0410 84 85 180/ 10/ 12 1020.0 ST AUGUSTINE FL 0400 80 74 210/ 7/ 8 1018.6S $$

USA.gov is the U.S. government's official web portal to all federal, state and local government web resources and services.